This is the latest recevied weather packets stored in our database for station/object DO0SOB-11. If no packets are shown the sender has not sent any weather packets the latest 10 day(s).
| Time | Temp. | Humidity | Pressure | Rain* | Wind** | Luminosity | Snow |
|---|---|---|---|---|---|---|---|
| 1777427052 | 5° C | 100% | 985.8 hPa | - | - | - | - |
| 1777426152 | 5.56° C | 100% | 985.7 hPa | - | - | - | - |
| 1777425252 | 6.11° C | 100% | 985.8 hPa | - | - | - | - |
| 1777424352 | 6.11° C | 100% | 985.9 hPa | - | - | - | - |
| 1777423452 | 6.11° C | 100% | 985.8 hPa | - | - | - | - |
| 1777422552 | 5.56° C | 100% | 985.8 hPa | - | - | - | - |
| 1777421652 | 6.67° C | 100% | 985.8 hPa | - | - | - | - |
| 1777420752 | 6.11° C | 100% | 985.7 hPa | - | - | - | - |
| 1777419852 | 6.67° C | 100% | 985.7 hPa | - | - | - | - |
| 1777418952 | 6.67° C | 100% | 985.6 hPa | - | - | - | - |
| 1777418052 | 6.67° C | 98% | 985.6 hPa | - | - | - | - |
| 1777417152 | 6.67° C | 97% | 985.6 hPa | - | - | - | - |
| 1777416252 | 6.67° C | 97% | 985.6 hPa | - | - | - | - |
| 1777415352 | 7.22° C | 90% | 985.5 hPa | - | - | - | - |
| 1777414452 | 7.22° C | 89% | 985.4 hPa | - | - | - | - |
| 1777413552 | 7.78° C | 88% | 985.4 hPa | - | - | - | - |
| 1777412652 | 8.33° C | 84% | 985.3 hPa | - | - | - | - |
| 1777411751 | 8.33° C | 86% | 985.2 hPa | - | - | - | - |
| 1777410852 | 8.33° C | 86% | 984.9 hPa | - | - | - | - |
| 1777409951 | 8.33° C | 87% | 984.9 hPa | - | - | - | - |
| 1777409051 | 8.33° C | 84% | 984.9 hPa | - | - | - | - |
| 1777408151 | 8.89° C | 79% | 984.8 hPa | - | - | - | - |
| 1777407251 | 8.89° C | 80% | 984.8 hPa | - | - | - | - |
| 1777406351 | 9.44° C | 73% | 984.6 hPa | - | - | - | - |
| 1777405451 | 9.44° C | 70% | 984.5 hPa | - | - | - | - |
* Rain since midnight (hover to see other rain measurements)
** Current wind speed in m/s (hover to see current wind gust speed)